Torna al catalogo

SL-12 DEB

AttivoHEO
NORAD 25805·DEBRIS·🇷🇺 Russia

Lanciato Sep 16, 1987 da Baikonur Cosmodrome

Loading…

Prossimi Passaggi (prossime 24 ore)

TLE

AggiornatoSource: Space-Track

Epoca: Sep 9, 2026, 14:41 UTC

1 25805U 87079Q   26252.61245443  .00010870  00000-0  63751-2 0  9997
2 25805  64.8413 272.2073 5263760  33.1521 350.9647  5.08468033 57592

Traccia SL-12 DEB in tempo reale con AllMySat

Download on the App Store